Retour au catalogue

LEMUR 2 SIERRINI

ActifMétéoSSO
NORAD 60579·PAYLOAD·🇺🇸 United States

Lancé Aug 16, 2024 depuis Vandenberg Space Force Base

Loading…

Prochains Passages (prochaines 24 heures)

TLE

FraisSource: Space-Track

Époque: Sep 13, 2026, 18:40 UTC

1 60579U 24149DR  26256.77791819  .00008262  00000-0  47723-3 0  9991
2 60579  97.6800 339.8466 0004079 219.6126 140.4807 15.12566874113841

Suivez LEMUR 2 SIERRINI en temps réel avec AllMySat

Download on the App Store